Regional Weather Roundup
Issued by NWS

Home | Current Version | Previous Version | Text Only | Print | Product List | Glossary Off
Versions: 1 2 3 4 5 6 7 8 9 10 11 12 13 14 15 16 17 18 19 20 21 22 23 24 25 26 27 28 29 30 31 32 33 34 35 36 37 38 39 40 41 42 43 44 45 46 47 48 49 50

000
ASUS43 KDMX 242001
RWRIA

WEATHER ROUNDUP FOR IOWA
NATIONAL WEATHER SERVICE DES MOINES IA
300 PM CDT SAT JUN 24 2017

NOTE: "FAIR" INDICATES FEW OR NO CLOUDS BELOW 12,000 FEET WITH NO
SIGNIFICANT WEATHER AND/OR OBSTRUCTIONS TO VISIBILITY.

* - THESE STATIONS ARE NOT NWS STATIONS...THUS NOT UNDER NWS
QUALITY CONTROL.  THEY ALSO DO NOT REPORT WEATHER SUCH
AS PRECIPITATION OR FOG.

IAZ001>003-012>014-020>022-031>034-043>046-242100-
   NORTHWEST IOWA

CITY           SKY/WX    TMP DP  RH WIND       PRES   REMARKS
CARROLL *      CLOUDY    77  37  24 W22G30    30.10F
CHEROKEE *     PTSUNNY   71  38  30 NW20G30   30.11S
DENISON *      PTSUNNY   75  36  23 W18G26    30.13F
LE MARS *      PTSUNNY   72  39  30 NW18G31   30.13R
ORANGE CITY *  MOSUNNY   73  43  33 NW26G35   30.11S
SHELDON *      MOSUNNY   72  39  30 NW22G36   30.09R
SIOUX CITY     PTSUNNY   78  40  25 NW20      30.11R
SPENCER        PTSUNNY   71  39  31 NW28G40   30.08S
STORM LAKE *   CLOUDY    72  36  26 NW22G31   30.11S
$$

IAZ055>058-069>071-079>083-090>094-242100-
   SOUTHWEST IOWA

CITY           SKY/WX    TMP DP  RH WIND       PRES   REMARKS
ATLANTIC *     MOSUNNY   75  39  27 NW14G23   30.14F
AUDUBON *      MOSUNNY   75  36  23 W10G22    30.14F
CLARINDA *     MOSUNNY   77  46  33 W12G21    30.20F
COUNCIL BLFS * MOSUNNY   77  41  27 W16       30.16S
CRESTON *      MOSUNNY   73  41  31 W14G21    30.18F
HARLAN  *      MOSUNNY   77  39  25 W17G30    30.17F
LAMONI         MOSUNNY   76  44  32 W16G23    30.18S
RED OAK *      MOSUNNY   77  41  27 W14G20    30.17S
SHENANDOAH *   MOSUNNY   77  41  27 W15G25    30.18F
$$

IAZ047>049-059>061-072>074-084-242100-
   CENTRAL IOWA

CITY           SKY/WX    TMP DP  RH WIND       PRES   REMARKS
AMES           PTSUNNY   76  41  28 W21G26    30.09F
ANKENY *       SUNNY     75  43  31 W15G22    30.12F
BOONE *        PTSUNNY   73  39  29 W23G29    30.09F
CHARITON *     MOSUNNY   75  41  29 W14       30.15F
DES MOINES     MOSUNNY   77  40  26 W20G31    30.11F
GRINNELL*      MOSUNNY   72  40  31 W15G22    30.13F
KNOXVILLE *    MOSUNNY   73  41  31 NW13G29   30.12F
MARSHALLTOWN   MOSUNNY   73  43  33 W21       30.09F
NEWTON *       SUNNY     73  43  33 W15G22    30.12F
PELLA *        SUNNY     74  39  28 W14       30.14F
PERRY *        PTSUNNY   74  36  25 W18G24    30.12F
$$

IAZ004>006-015-016-023>025-035-036-242100-
   NORTH CENTRAL IOWA

CITY           SKY/WX    TMP DP  RH WIND       PRES   REMARKS
ALGONA *       CLOUDY    72  39  30 NW22G33   30.06S
CLARION *        N/A     72  39  30 W21G30    30.06F
ESTHERVILLE    MOSUNNY   70  41  34 NW28G39   30.05S
FORT DODGE *   CLOUDY    70  39  32 W17G24    30.09F
MASON CITY     CLOUDY    69  42  37 W20G25    30.06F
FOREST CITY *    N/A     70  27  19 NW22G28   30.04S
WEBSTER CITY * CLOUDY    72  39  30 W16G24    30.06F
IOWA FALLS *   PTSUNNY   72  42  33 W15       30.09F
$$

IAZ007>011-017>019-026>030-037>042-050>054-066-242100-
   NORTHEAST IOWA

CITY           SKY/WX    TMP DP  RH WIND       PRES   REMARKS
CEDAR RAPIDS   MOSUNNY   73  45  36 W22G28    30.09F
CHARLES CITY * PTSUNNY   66  41  39 SW15G21   30.05F
CLINTON *      SUNNY     72  46  39 NW23G31   30.07F
DECORAH *      MOSUNNY   68  45  42 VRB7G14   30.03F
DUBUQUE        MOSUNNY   69  43  38 W20G26    30.08S
MONTICELLO *   MOSUNNY   70  45  40 NW16G26   30.08S
OELWEIN *      MOSUNNY   70  45  40 W16G23    30.08F
WATERLOO       PTSUNNY   73  41  31 W13G26    30.06F
$$

IAZ064-065-067-068-078-242100-
   EAST CENTRAL IOWA

CITY           SKY/WX    TMP DP  RH WIND       PRES   REMARKS
DAVENPORT      SUNNY     72  43  35 NW23G31   30.09F
IOWA CITY      SUNNY     75  42  30 W17G25    30.12S
MT. PLEASANT * SUNNY     74  36  25 W16G26    30.13S
MUSCATINE *    SUNNY     75  37  25 NW18G24   30.11S
QUAD CITIES    SUNNY     74  41  30 NW17G28   30.08S
$$

IAZ062-063-075>077-085>089-095>099-242100-
   SOUTHEAST IOWA

CITY           SKY/WX    TMP DP  RH WIND       PRES   REMARKS
BURLINGTON     SUNNY     74  42  31 NW14G28   30.12R
FAIRFIELD *    SUNNY     75  37  25 NW18G26   30.12F
FORT MADISON * SUNNY     75  43  31 NW17G24   30.13S
KEOKUK *       SUNNY     73  43  33 NW14G23   30.13S
OSKALOOSA *      N/A     75  40  28 W21       30.14F
OTTUMWA        SUNNY     76  38  25 NW17G29   30.14F
WASHINGTON *   SUNNY     75  41  29 NW15G24   30.13F
$$

ABBREVIATIONS USED IN REMARKS
   TC - TEMPERATURES IN CELSIUS
  WCI - WIND CHILL INDEX
   HX - HEAT INDEX
  VSB - VISIBILITY
$$





USA.gov is the U.S. government's official web portal to all federal, state and local government web resources and services.